This is the latest recevied weather packets stored in our database for station/object K5UTC. If no packets are shown the sender has not sent any weather packets the latest 10 day(s).
| Time | Temp. | Humidity | Pressure | Rain* | Wind** | Luminosity | Snow |
|---|---|---|---|---|---|---|---|
| 1778206276 | 12.78° C | 93% | 1014.6 hPa | 0 mm | - | 0 W/m² | - |
| 1778205974 | 12.78° C | 92% | 1014.4 hPa | 0 mm | - | 0 W/m² | - |
| 1778205671 | 12.78° C | 93% | 1014.4 hPa | 0 mm | - | 0 W/m² | - |
| 1778205368 | 12.78° C | 92% | 1014.4 hPa | 0 mm | - | 0 W/m² | - |
| 1778205065 | 13.33° C | 92% | 1014.3 hPa | 0 mm | - | 0 W/m² | - |
| 1778204761 | 13.33° C | 92% | 1014.3 hPa | 0 mm | - | 0 W/m² | - |
| 1778204458 | 13.33° C | 91% | 1014.2 hPa | 0 mm | - | 0 W/m² | - |
| 1778204154 | 13.33° C | 91% | 1014.2 hPa | 0 mm | - | 0 W/m² | - |
| 1778203851 | 13.89° C | 90% | 1014.3 hPa | 0 mm | - | 0 W/m² | - |
| 1778203548 | 13.89° C | 89% | 1014.3 hPa | 0 mm | - | 0 W/m² | - |
| 1778203246 | 13.89° C | 88% | 1014.3 hPa | 0 mm | - | 0 W/m² | - |
| 1778202944 | 13.89° C | 87% | 1014 hPa | 0 mm | - | 0 W/m² | - |
| 1778202641 | 14.44° C | 86% | 1014.1 hPa | 0 mm | - | 0 W/m² | - |
| 1778202337 | 14.44° C | 87% | 1014 hPa | 0 mm | - | 0 W/m² | - |
| 1778202035 | 15° C | 86% | 1014 hPa | 0 mm | - | 0 W/m² | - |
| 1778201731 | 15° C | 85% | 1013.9 hPa | 0 mm | - | 0 W/m² | - |
| 1778201428 | 15° C | 83% | 1013.7 hPa | 0 mm | - | 0 W/m² | - |
| 1778201124 | 15° C | 80% | 1013.9 hPa | 0 mm | - | 1 W/m² | - |
| 1778200821 | 15.56° C | 79% | 1013.8 hPa | 0 mm | - | 2 W/m² | - |
| 1778200518 | 15.56° C | 77% | 1013.6 hPa | 0 mm | - | 3 W/m² | - |
| 1778200215 | 16.11° C | 77% | 1013.6 hPa | 0 mm | - | 5 W/m² | - |
| 1778199911 | 16.67° C | 76% | 1013.7 hPa | 0 mm | - | 9 W/m² | - |
| 1778199609 | 17.22° C | 76% | 1013.4 hPa | 0 mm | - | 11 W/m² | - |
| 1778199304 | 17.78° C | 75% | 1013.4 hPa | 0 mm | - | 18 W/m² | - |
| 1778199001 | 17.78° C | 72% | 1013.6 hPa | 0 mm | - | 22 W/m² | - |
* Rain latest hour (hover to see other rain measurements)
** Current wind speed in m/s (hover to see current wind gust speed)